0 HST 1 20580U 90037B 26158.29828937 .00006010 00000-0 18954-3 0 9991 2 20580 28.4712 148.1547 0001938 44.7656 315.3096 15.30642118787059 0 ISS (ZARYA) 1 25544U 98067A 26159.80410962 .00007129 00000-0 13425-3 0 9990 2 25544 51.6336 341.5878 0006923 148.5365 211.6039 15.49672912570453 0 CXO 1 25867U 99040B 26161.44248451 .00000667 00000-0 00000-0 0 9997 2 25867 56.0540 116.8503 7852548 310.2578 0.2529 0.37805334 17299